Location: Unspecified
(0.0000°N, 0.0000°E)
Time: 11:24:52
(UTC+00:00)

Altair - Pass Details

Date: 23 November 2019
Orbit: 1502 x 1682 km, 47.2° (Epoch: 07 December)

Event Time Altitude Azimuth Distance (km) Brightness Sun altitude
Rises 08:43:48 0° 347° (NNW) 4,693 9.7 41.0°
Reaches altitude 10° 08:47:52 10° 2° (N) 3,741 9.4 41.9°
Maximum altitude 08:54:37 21° 48° (NE) 2,987 9.5 43.4°
Drops below altitude 10° 09:01:32 10° 94° (E) 3,852 10.5 44.9°
Sets 09:05:44 0° 108° (ESE) 4,869 10.8 45.8°
